Theta_e
293 292 293 292 291 292 291 293 294 295 295 296 297 298 298 297 297 296 296 297 298 298 298 298 299 299 300 300 300 300 301 301 300 300 300 300 300 300 300 300 300 300 300 301 302 303 304 304 303 302 301 300 298 297 296 296 294 292 291 291 290 290
292 291 291 292 291 291 291 292 292 294 295 294 295 295 294 294 295 294 296 296 296 297 296 296 298 298 298 299 299 300 300 301 300 300 299 299 298 299 300 299 299 298 298 298 299 300 301 301 301 301 300 298 297 296 295 295 295 293 292 291 291 290
290 289 288 289 288 288 289 291 292 293 293 294 294 295 295 294 294 294 295 294 295 295 296 296 296 296 297 297 298 299 300 300 299 300 300 297 297 297 298 298 298 298 298 298 298 298 299 299 299 298 298 297 297 296 296 295 294 293 293 292 291 290
290 287 286 286 286 288 287 290 290 291 292 293 293 294 295 294 294 294 295 294 295 295 296 295 295 296 296 296 296 296 297 297 298 298 297 296 297 295 296 297 297 297 297 297 298 298 298 299 301 298 297 297 297 296 297 296 295 294 293 292 291 290
288 287 287 287 287 288 287 288 290 291 291 291 292 293 294 294 294 294 294 294 294 294 294 294 293 293 294 294 294 294 294 295 294 294 295 295 295 294 295 296 296 296 296 295 295 296 297 298 298 298 297 297 297 297 297 296 295 294 293 292 292 291
285 286 289 291 291 289 290 290 290 290 290 291 290 291 292 292 292 292 293 293 293 292 291 292 292 291 292 292 293 293 293 293 293 292 293 294 293 293 293 295 296 295 295 294 294 294 295 296 296 296 296 297 297 296 296 296 295 294 294 294 293 292
290 290 288 288 288 287 287 289 289 289 290 288 289 291 290 289 289 290 291 290 291 290 289 290 289 290 290 291 291 292 292 291 291 291 292 292 293 293 293 293 293 294 294 294 294 294 294 295 296 296 295 296 296 296 296 296 295 294 294 294 293 291
287 287 288 288 288 287 288 287 287 287 288 289 289 289 289 289 287 289 290 289 289 290 289 289 288 289 290 290 290 291 291 291 291 291 291 292 293 292 292 292 292 293 293 294 294 294 294 295 295 295 296 296 295 295 296 296 295 295 294 294 294 293
289 289 288 288 287 287 286 287 288 288 288 290 289 288 288 288 287 288 288 289 289 289 288 288 289 289 289 289 290 290 290 290 290 291 292 291 292 293 292 291 292 293 293 294 294 294 294 294 295 295 295 295 295 295 295 295 295 295 294 294 294 294
288 288 288 287 286 287 288 287 288 288 287 289 289 288 287 288 287 287 288 288 288 289 289 289 288 288 288 289 289 289 289 290 290 291 292 291 292 292 293 293 292 293 292 293 294 294 294 294 294 295 295 295 295 294 294 294 294 294 293 293 293 292
287 287 287 287 288 289 288 289 289 289 289 288 288 287 288 286 286 287 287 287 288 289 289 288 287 287 287 288 288 289 289 289 290 290 291 291 292 293 293 293 293 293 292 292 293 293 293 293 293 294 294 295 295 295 294 294 294 293 293 293 292 292
287 287 287 288 288 288 288 289 289 289 288 289 289 288 288 286 286 286 287 287 288 288 288 287 287 287 287 287 288 289 289 289 289 290 290 291 292 292 292 291 291 292 292 292 292 292 292 292 293 291 292 293 293 294 294 294 294 293 293 292 292 291
287 287 287 287 287 287 287 287 287 287 287 288 288 288 288 286 286 285 286 288 288 287 287 287 287 287 287 288 287 288 288 289 289 289 289 290 290 290 290 289 290 291 291 291 291 291 292 292 292 291 293 294 294 293 293 292 292 292 292 291 291 291
286 286 286 286 286 286 286 287 286 286 287 287 287 287 286 286 285 286 287 287 287 287 287 287 287 287 287 287 287 288 288 288 288 288 289 289 289 289 289 289 290 290 290 291 290 290 291 292 291 293 293 293 294 293 292 292 292 292 292 292 291 291
285 284 284 284 284 285 285 285 284 285 286 286 286 285 285 286 285 286 286 287 287 287 286 286 286 287 287 287 287 287 287 287 287 287 288 288 289 288 288 289 289 289 290 290 290 290 290 290 292 293 293 293 293 293 292 292 292 291 291 291 291 291
284 284 284 284 283 284 284 284 284 285 285 285 284 284 285 285 285 284 285 286 286 286 286 286 286 287 287 287 286 286 286 287 287 287 288 288 287 287 288 288 288 289 289 289 289 289 290 290 290 292 292 292 292 293 292 291 291 291 291 291 291 291
283 283 283 284 283 283 283 284 284 284 284 284 285 285 285 285 285 286 286 286 286 285 285 286 286 286 287 287 286 286 286 286 287 287 287 287 287 287 288 288 288 288 288 288 288 289 289 290 291 292 292 292 292 293 292 291 291 290 290 290 290 290
284 283 283 283 282 283 283 284 284 284 284 283 284 285 285 285 285 286 286 286 286 286 286 286 286 286 286 286 286 286 286 286 286 287 287 287 287 287 287 287 287 287 287 288 288 288 288 289 291 291 291 292 292 292 290 290 290 289 289 289 289 289
284 283 283 282 282 283 284 283 283 283 283 284 284 284 284 285 285 285 285 285 285 285 285 285 285 285 286 286 286 286 286 286 287 286 286 286 286 286 287 287 287 287 287 287 287 287 288 288 289 291 291 291 292 291 289 289 288 288 288 288 289 288
282 282 282 282 282 283 283 282 282 282 283 283 283 283 284 284 284 284 284 284 284 284 284 284 284 284 285 285 285 286 287 287 286 286 286 286 287 287 287 287 287 287 287 287 287 287 287 287 288 289 290 291 291 290 288 288 288 287 288 288 288 288
282 282 281 282 282 283 281 281 281 281 282 282 282 282 283 283 283 283 283 283 284 284 283 283 283 284 284 284 285 286 286 286 287 287 286 286 286 287 287 287 286 287 287 287 287 286 287 287 287 289 290 290 290 289 288 288 287 287 287 287 287 287
281 282 281 282 282 281 281 280 280 280 281 281 280 282 282 283 283 283 283 283 283 283 283 283 283 283 283 284 284 285 286 286 286 286 286 286 285 286 286 286 286 286 287 287 286 286 286 286 286 287 289 290 290 290 288 287 286 286 286 287 287 286
282 282 281 281 282 281 281 280 280 280 280 280 281 282 282 282 282 282 282 282 282 282 282 282 282 283 283 283 284 284 285 284 285 285 285 285 285 285 285 285 285 286 286 286 286 286 286 286 286 286 288 289 290 290 289 287 286 287 286 286 286 286
282 281 281 281 281 281 281 280 279 279 280 280 281 281 282 282 282 282 281 281 281 281 281 282 282 282 283 283 283 283 283 284 284 284 284 284 284 284 284 284 284 284 285 285 285 285 285 285 285 285 286 288 289 290 290 287 287 287 286 286 286 286
282 282 281 280 279 280 279 277 277 278 278 279 280 281 281 281 281 280 280 280 280 280 281 281 281 282 282 282 282 282 282 283 282 282 282 282 282 282 282 283 283 283 283 284 284 284 283 283 283 285 284 286 288 289 289 289 288 288 287 286 285 285
281 281 281 280 279 278 278 278 278 278 278 279 281 280 280 280 279 279 279 279 280 280 280 281 280 280 280 280 281 281 281 281 282 281 281 281 281 281 282 282 282 282 282 282 283 283 282 281 281 282 284 285 287 288 289 289 289 289 287 286 286 286
279 278 277 278 277 278 278 278 277 277 277 279 280 279 279 278 278 278 278 279 279 279 280 280 280 280 280 280 279 280 281 281 280 281 281 278 280 280 280 282 281 281 282 282 282 283 283 281 280 281 283 284 285 286 287 288 288 289 289 287 286 285
275 275 276 276 277 277 277 277 276 276 277 278 278 278 278 277 276 277 277 278 279 279 279 278 279 279 279 279 279 279 279 280 280 280 281 279 280 280 280 281 281 281 281 281 282 282 283 283 281 280 281 282 283 284 285 286 287 286 287 286 287 285
274 274 274 274 276 276 276 275 276 276 276 276 277 276 276 275 275 276 276 277 277 278 278 277 278 279 280 279 279 279 278 279 279 279 280 280 280 280 280 281 281 281 282 282 282 282 283 283 282 282 281 281 281 281 282 283 284 284 285 285 286 285
272 273 273 274 275 275 275 275 274 275 274 275 275 273 272 272 274 274 274 275 276 277 277 278 278 279 279 279 279 279 279 278 278 279 280 280 280 280 281 282 282 282 283 283 283 284 284 284 284 283 282 282 282 282 283 283 283 283 284 284 285 284
272 272 272 273 274 274 274 273 273 274 274 272 270 269 269 270 271 272 272 274 275 276 277 278 278 278 278 279 279 279 279 279 280 280 280 281 281 282 282 282 282 284 284 284 284 284 283 284 284 284 285 283 284 283 282 282 283 283 284 285 285 282
272 272 272 273 274 273 272 271 272 274 272 269 267 266 266 267 268 269 271 273 274 275 276 277 277 277 278 278 278 278 279 279 282 281 280 281 282 284 285 285 283 284 284 284 285 285 284 283 285 286 286 286 286 286 285 285 285 285 285 285 286 282
271 271 271 272 273 271 269 270 271 272 269 267 265 264 264 265 266 268 269 271 272 274 275 276 276 277 277 277 277 277 278 279 281 284 285 284 283 284 285 285 286 286 286 285 284 285 286 286 286 286 286 286 286 286 285 285 285 285 286 286 283 280
269 270 270 271 270 268 269 269 270 269 266 264 263 263 262 263 264 265 266 268 270 273 274 274 275 276 276 277 277 278 278 279 279 280 283 285 285 285 285 285 285 285 285 286 285 284 284 285 286 286 286 286 286 285 285 285 285 285 286 285 284 279
269 269 270 268 267 268 269 268 268 266 263 262 261 261 261 261 262 263 265 267 269 271 272 273 274 275 275 276 277 278 279 279 279 279 279 282 284 285 285 285 285 285 285 285 285 285 285 285 285 286 286 285 285 285 284 284 285 285 286 285 282 279
267 268 267 266 267 267 267 266 265 263 261 260 260 261 260 261 262 263 265 266 268 269 270 271 273 274 275 276 276 277 278 279 279 279 279 279 279 281 282 285 285 285 285 285 285 285 285 285 285 285 285 285 285 285 284 284 283 285 286 285 281 279
264 264 265 266 266 265 264 263 263 261 260 259 259 260 260 261 262 263 265 267 268 269 270 271 272 273 274 275 276 277 278 278 279 279 279 279 278 278 278 279 280 282 284 283 283 284 284 284 284 285 285 285 285 284 284 284 282 281 282 283 282 281
264 263 264 265 263 262 261 260 261 260 259 259 259 260 260 261 262 263 264 266 267 268 268 269 270 272 273 275 276 277 278 278 278 278 278 279 279 278 278 279 280 280 281 282 283 283 284 284 284 284 284 284 285 285 284 280 279 280 280 281 282 281
Wind_Speed
5 5 6 4 3 3 3 3 4 5 5 5 6 8 7 6 6 6 6 7 7 7 9 9 9 8 8 7 7 6 8 8 8 8 8 6 6 7 7 8 9 8 8 9 9 9 11 11 11 10 10 11 11 12 12 12 12 11 12 12 12 11
5 5 4 5 4 4 3 4 4 7 6 4 4 5 4 3 4 4 6 6 7 7 5 6 7 7 7 8 8 8 9 9 8 8 7 8 7 8 8 9 9 9 9 8 9 9 9 9 9 9 10 10 10 11 11 10 12 13 14 13 12 10
5 4 4 4 5 4 4 4 6 5 2 3 3 5 5 4 4 4 6 5 7 7 8 8 6 8 7 7 8 9 9 8 8 8 8 6 8 7 8 9 9 9 10 9 9 10 10 9 9 8 8 9 11 11 12 12 12 14 12 11 12 11
5 4 4 4 4 4 4 5 4 4 3 4 4 5 6 5 5 6 6 6 7 8 8 8 6 7 7 8 8 9 9 8 8 8 7 8 8 8 9 10 9 8 9 9 10 10 10 10 10 9 9 10 11 12 11 12 13 14 14 13 14 13
4 4 3 4 4 5 5 5 4 4 3 3 4 5 6 4 5 5 5 6 6 8 7 6 7 7 7 8 8 8 9 9 7 7 9 9 8 7 9 9 9 8 8 9 9 10 10 10 10 9 9 10 12 13 13 13 13 15 15 14 14 14
2 2 3 6 6 6 6 5 4 4 4 4 4 5 5 4 4 5 5 5 7 7 6 7 6 6 7 8 8 9 8 8 8 7 9 8 7 8 8 8 9 8 9 9 10 10 10 10 10 10 9 11 12 13 13 13 12 13 14 15 15 15
3 4 4 3 4 4 3 4 5 4 5 4 4 4 4 4 4 5 5 5 7 6 6 6 5 7 8 9 8 10 9 8 7 7 8 7 8 8 7 7 6 8 9 10 10 11 10 11 10 11 11 11 11 12 13 13 13 13 14 14 13 13
2 2 2 3 4 5 5 5 3 4 3 3 3 4 4 4 4 4 4 5 7 7 6 6 6 8 9 9 9 10 9 7 7 7 7 7 9 8 8 8 7 9 10 10 10 10 10 10 10 11 12 13 12 12 13 13 13 13 14 14 14 14
4 5 5 5 5 4 3 3 4 5 5 6 3 3 4 4 4 4 4 5 6 6 5 6 7 7 7 8 9 7 6 7 7 7 9 8 8 9 9 8 9 8 10 11 11 11 11 10 10 11 12 12 12 13 13 13 13 13 13 13 14 14
2 1 0 3 4 3 4 5 5 5 5 7 6 5 5 5 4 4 4 5 6 6 7 6 6 6 7 7 6 7 7 7 7 8 8 7 9 10 10 10 10 10 9 11 11 11 10 11 11 12 12 12 12 12 13 13 13 13 13 12 12 12
1 1 4 5 6 8 7 7 8 8 7 4 5 5 6 5 4 4 4 4 6 7 6 5 4 5 6 6 6 7 8 7 8 7 8 8 9 9 10 9 9 9 10 11 11 11 10 10 11 11 11 12 13 12 13 14 14 14 14 14 14 13
5 7 7 9 8 8 8 8 8 8 8 9 8 7 6 5 5 5 5 6 7 6 5 5 5 5 5 5 7 7 7 7 8 8 9 10 10 9 9 8 8 9 11 11 11 10 10 10 9 12 18 16 12 12 12 12 13 13 13 13 13 13
7 8 8 7 7 7 7 6 6 7 7 7 8 8 7 5 5 4 4 7 6 5 5 5 6 5 6 6 6 6 7 8 8 8 9 9 8 9 8 7 10 11 10 11 11 11 11 10 10 15 17 19 20 14 11 12 13 13 13 14 14 14
6 6 6 5 5 6 6 7 6 6 8 7 7 8 7 6 5 5 6 6 6 5 5 6 6 6 6 5 7 7 7 7 7 8 8 8 9 9 7 9 11 11 10 10 10 11 11 11 12 17 18 20 20 18 14 12 13 13 13 14 14 14
3 3 4 3 4 4 5 5 5 6 6 7 7 7 6 6 6 6 6 6 6 7 6 5 6 6 6 6 6 6 6 7 7 8 8 10 9 6 8 11 10 11 11 11 12 12 12 11 14 18 20 20 20 21 18 13 13 13 13 13 14 14
1 2 2 2 3 3 3 3 3 4 4 5 5 4 4 4 4 4 5 5 5 6 6 6 6 7 7 7 6 6 7 7 8 8 8 7 6 8 10 9 11 11 11 11 12 13 12 12 14 19 19 19 20 21 19 14 14 14 15 15 15 14
2 2 4 3 3 3 3 3 3 4 4 4 5 4 5 5 5 5 6 6 5 5 5 6 6 7 7 7 6 6 7 7 7 7 7 7 8 9 10 10 11 11 10 11 11 12 13 12 15 17 19 19 20 20 18 14 13 13 14 14 14 14
3 3 3 3 3 4 3 5 5 6 6 4 5 6 6 6 7 8 8 9 8 8 7 7 8 7 7 7 7 6 8 7 8 9 7 7 7 8 8 9 8 10 11 11 11 12 14 13 15 17 18 19 19 20 14 12 13 14 14 14 14 13
1 2 1 3 4 4 6 6 5 5 5 6 7 7 7 8 9 10 10 10 9 9 9 8 9 9 9 9 9 9 8 8 9 8 5 8 8 8 9 10 10 10 10 11 11 13 14 13 13 17 18 18 20 16 11 11 11 13 15 15 13 13
2 2 1 3 4 4 4 5 5 5 6 7 6 7 7 8 9 9 9 10 10 10 10 9 9 10 10 9 10 10 10 8 8 8 6 8 9 9 10 9 10 9 9 11 12 12 13 13 12 16 18 18 19 16 12 11 11 14 14 13 13 12
3 3 3 4 5 6 4 4 5 4 5 5 5 5 6 8 8 8 9 10 9 9 8 8 8 8 9 9 9 9 10 10 10 9 6 8 8 10 8 8 9 10 9 10 12 14 15 14 12 15 17 18 18 15 11 11 11 13 14 12 13 12
4 5 4 5 5 4 4 3 3 3 4 5 3 5 8 8 8 7 6 7 7 7 8 7 8 7 8 9 10 9 9 8 9 8 8 8 7 9 9 8 9 11 12 9 10 11 12 13 12 10 16 17 18 19 13 10 11 14 14 12 12 12
2 2 2 3 4 4 4 4 4 4 4 4 5 8 8 8 7 7 7 7 7 7 7 6 6 9 8 7 9 8 8 7 8 8 7 9 8 8 10 10 10 11 12 9 9 10 11 10 11 11 15 17 18 19 17 11 14 13 12 11 13 12
2 2 3 4 4 4 5 4 4 4 4 5 8 8 7 7 8 8 8 8 8 8 8 7 8 6 7 7 7 9 9 6 6 7 8 7 8 10 11 10 9 10 11 10 9 9 10 9 12 11 12 16 18 18 21 14 14 13 11 13 14 12
4 4 3 3 5 5 4 3 3 4 4 7 7 7 7 7 7 8 8 8 8 8 8 8 8 9 7 8 8 8 10 8 7 7 6 7 8 9 11 11 9 9 11 11 10 8 9 8 8 12 11 14 17 20 20 22 18 17 13 13 14 14
3 4 3 4 4 3 4 5 8 7 8 9 9 8 9 9 9 9 9 8 8 9 9 9 9 8 7 8 8 8 8 9 8 7 6 6 7 7 9 9 7 8 10 11 12 9 7 7 8 10 14 13 15 17 21 22 23 22 14 13 14 12
7 5 3 3 5 5 6 7 9 10 12 11 10 10 11 12 12 11 11 11 10 10 10 10 9 9 8 7 7 8 9 9 7 8 7 4 6 6 8 10 7 8 10 10 11 11 9 6 7 8 10 14 16 17 19 20 22 22 22 16 13 11
2 3 4 4 5 7 6 7 8 10 10 9 9 10 10 11 12 12 12 12 11 10 10 11 11 9 8 8 6 6 6 7 8 8 9 6 6 6 7 9 8 8 9 10 11 10 10 8 6 7 6 7 11 12 16 19 20 20 21 21 17 15
5 7 7 8 6 7 6 6 7 6 7 9 9 11 12 12 11 11 11 11 11 10 8 9 9 10 10 8 8 7 6 6 7 7 8 7 7 8 7 8 8 8 9 10 10 10 9 9 7 6 5 6 7 8 9 10 12 16 18 15 12 11
5 6 7 8 9 8 7 7 7 7 7 7 11 12 12 11 10 10 10 11 10 9 9 9 10 10 9 10 8 9 10 7 6 7 9 8 7 8 9 8 8 8 8 9 10 9 10 10 8 6 6 7 7 8 8 7 8 8 9 10 9 8
7 7 8 8 7 7 7 7 8 7 8 10 10 10 10 10 10 10 9 9 8 9 8 8 9 8 9 10 10 8 8 9 10 9 9 9 7 8 9 9 10 9 7 8 9 9 10 11 10 8 6 8 10 9 8 7 8 8 8 11 12 5
7 7 7 7 7 8 9 8 9 7 9 10 9 10 10 11 10 8 8 8 8 8 9 9 9 9 9 9 9 11 12 9 11 11 10 11 9 13 16 13 11 10 7 8 10 8 9 12 12 10 11 12 13 16 16 16 15 13 10 11 16 10
5 5 5 6 8 8 8 6 8 6 10 10 10 10 10 10 9 9 8 9 9 10 10 9 9 9 8 8 9 9 10 12 13 11 15 16 17 15 15 16 19 19 17 12 12 12 14 16 19 19 16 15 14 14 15 16 16 16 16 15 10 8
7 7 7 7 7 7 6 5 6 7 9 9 9 9 9 9 8 9 10 10 10 11 10 9 9 9 9 9 8 8 9 10 12 15 14 11 13 17 17 15 17 16 17 17 16 13 11 14 15 17 16 15 15 14 14 15 16 17 18 18 18 9
7 6 6 6 7 6 7 6 7 7 9 10 9 9 9 9 8 9 9 9 10 10 11 9 9 9 9 10 11 11 10 10 10 12 15 17 13 12 15 17 15 16 17 16 16 16 15 16 16 16 17 16 14 14 15 16 17 17 18 19 13 9
5 5 5 5 5 6 7 8 8 8 10 10 10 10 10 9 8 8 8 9 11 11 10 10 9 10 11 10 9 9 10 11 10 10 11 13 14 15 11 12 14 14 16 16 17 16 17 17 17 17 16 16 16 16 15 15 12 15 18 16 10 8
3 3 6 6 6 7 6 6 6 7 9 9 9 10 9 9 9 9 10 14 12 9 10 10 9 10 9 11 10 9 9 11 10 10 11 11 12 12 13 14 11 9 11 13 13 14 16 16 16 16 16 16 16 15 14 15 9 9 9 12 11 9
4 5 5 6 6 5 5 6 6 8 8 9 9 10 10 9 10 9 9 9 11 10 10 11 11 11 10 9 9 8 8 9 10 10 10 10 11 11 12 12 11 10 10 16 16 17 15 17 16 16 16 16 15 14 13 8 8 8 9 10 10 10
Wind_Direction
257 263 269 261 247 242 251 271 262 251 240 229 222 227 227 223 212 207 214 212 221 221 223 222 224 226 228 226 226 220 220 222 220 219 221 219 211 213 211 212 221 224 224 227 233 224 218 212 209 208 210 206 208 210 214 211 206 207 212 214 209 213
254 254 267 294 312 326 328 301 274 254 250 247 258 278 282 261 229 214 221 221 225 235 233 233 227 228 227 225 222 224 225 225 221 223 224 219 209 212 212 214 217 219 222 224 228 233 230 221 218 210 208 207 212 210 213 217 214 212 211 211 208 207
280 279 280 304 333 342 321 272 255 257 276 267 267 258 260 250 242 225 234 218 230 231 233 230 222 229 226 231 224 228 229 228 222 222 222 217 218 207 214 217 218 219 221 225 227 230 230 226 220 214 211 209 213 214 215 216 212 215 216 211 214 211
277 305 353 356 341 295 269 259 258 256 240 235 236 238 240 233 235 223 231 223 228 228 233 231 226 226 227 229 227 228 230 227 222 218 216 217 220 203 214 216 219 219 220 223 229 231 232 230 226 219 212 212 214 218 216 216 214 217 218 208 212 210
338 329 292 279 279 286 296 303 300 287 273 255 247 238 252 224 240 228 227 229 232 236 234 233 230 225 229 230 230 230 229 228 227 216 218 220 219 211 211 214 215 218 218 222 227 229 230 231 232 225 217 219 218 220 220 218 216 215 215 215 214 209
271 295 348 344 340 329 320 311 309 306 300 283 269 261 272 262 247 240 232 236 241 240 236 234 233 231 234 234 233 234 231 227 227 220 223 224 219 218 218 217 217 215 218 223 226 228 230 231 230 229 226 224 222 224 224 222 223 223 223 220 217 212
21 2 335 299 289 290 306 326 327 320 294 275 278 285 278 263 250 243 244 238 249 245 238 243 233 235 236 236 235 237 234 230 229 223 225 222 226 224 216 220 215 222 222 224 226 228 229 231 230 229 228 228 228 229 227 225 224 223 223 223 220 215
301 297 313 327 347 354 346 336 303 277 285 305 285 284 292 270 253 249 252 246 248 251 240 240 234 235 236 236 238 238 234 232 229 228 228 218 225 224 219 215 213 215 222 226 230 229 231 231 230 230 229 228 228 229 229 228 226 226 226 226 225 220
15 5 5 1 355 348 333 315 330 348 345 334 332 286 282 284 269 261 253 257 253 263 255 244 240 239 240 239 242 245 241 236 233 227 230 220 223 224 223 217 217 218 220 225 224 225 228 231 231 232 232 232 230 230 230 231 230 228 228 229 227 226
357 340 337 25 4 345 5 8 10 357 344 333 333 336 323 307 293 277 266 268 271 264 262 251 249 246 245 246 247 247 245 243 239 235 236 227 227 229 228 223 217 219 218 227 230 231 229 230 231 230 231 231 231 231 232 231 231 230 230 231 230 228
196 51 37 29 21 17 5 1 358 360 356 351 340 337 328 319 312 295 285 282 274 270 269 275 261 251 248 245 244 244 243 240 240 240 237 233 234 233 234 234 228 227 227 230 232 236 232 233 231 230 228 230 230 229 232 231 231 230 230 229 227 223
32 28 25 22 17 6 360 356 355 355 348 340 343 342 332 340 312 304 302 290 280 284 289 282 276 262 255 252 246 245 244 242 241 238 238 237 237 238 237 237 237 235 235 234 234 233 233 233 233 230 227 225 227 228 232 233 234 232 233 234 234 232
29 25 23 11 5 356 348 342 340 339 339 342 338 336 334 338 313 300 288 285 286 293 294 288 279 272 263 254 253 250 245 243 240 240 242 245 243 241 240 233 236 236 237 237 236 234 232 234 233 231 230 230 229 230 233 234 236 232 232 231 231 232
24 19 7 355 351 346 342 341 341 340 338 333 332 329 330 334 321 303 294 282 294 295 288 283 282 276 269 266 257 253 250 248 244 244 243 246 245 243 236 237 238 240 238 240 241 240 237 238 232 231 232 232 232 229 231 235 237 235 235 233 232 233
14 358 347 345 339 336 320 317 329 334 329 329 322 326 333 331 322 313 306 309 314 309 304 298 295 287 285 274 267 263 258 249 248 246 244 243 243 245 238 239 239 241 240 240 243 243 240 243 232 231 232 233 233 232 230 237 235 237 238 235 234 233
356 354 327 302 297 289 286 283 294 305 301 298 307 321 322 319 325 311 305 310 313 311 310 311 305 297 288 283 273 264 258 253 248 247 245 251 247 240 246 245 244 244 242 241 243 247 246 244 237 234 234 233 234 234 232 238 236 238 238 236 233 234
353 3 353 338 316 303 314 319 336 325 333 344 347 349 346 352 348 355 348 339 333 328 324 319 310 300 295 288 280 270 264 258 260 253 248 244 241 242 243 244 246 246 246 247 245 249 249 246 241 240 237 235 235 236 235 239 240 241 242 240 238 236
359 342 318 308 320 324 345 349 344 357 352 339 353 349 357 356 358 354 351 346 343 340 336 331 321 313 306 300 293 282 276 268 258 260 253 247 248 247 252 255 248 252 247 245 246 251 254 251 243 243 241 238 237 235 235 238 240 243 244 243 240 238
347 301 291 318 334 354 357 347 352 354 349 3 1 358 354 0 1 355 346 339 337 336 334 333 326 321 318 315 312 302 293 287 278 268 252 257 250 248 247 247 245 245 248 250 246 248 255 256 243 243 243 240 238 236 239 238 240 243 243 243 241 237
3 347 17 351 359 358 348 349 349 353 3 1 353 357 358 5 358 346 340 334 333 330 329 327 326 320 318 317 313 307 301 291 282 276 261 257 264 258 250 249 254 248 243 246 247 242 252 256 243 240 244 241 238 231 236 236 239 245 245 248 243 239
15 338 3 16 17 350 350 344 349 2 6 353 347 351 360 360 347 342 335 327 322 320 318 317 317 314 312 312 307 305 302 299 293 290 282 265 262 265 266 258 258 259 249 243 247 246 246 257 251 239 243 240 237 233 234 236 239 246 246 246 249 244
29 17 15 17 352 329 342 346 353 0 358 348 331 1 3 349 337 318 311 307 309 309 311 311 311 307 307 305 302 299 292 292 293 288 280 274 265 271 270 264 262 264 262 252 250 252 245 252 255 241 241 241 239 234 233 235 238 243 248 244 247 250
38 11 356 350 337 336 339 355 7 10 353 340 3 7 350 332 323 322 315 314 311 311 308 305 302 305 302 293 293 293 291 286 283 287 284 283 281 274 276 271 269 269 271 266 259 259 255 248 255 251 237 242 240 237 232 236 237 242 244 248 245 242
64 50 26 2 352 342 347 357 358 353 356 6 12 352 332 328 326 322 319 316 316 311 310 309 306 297 295 298 297 303 301 294 286 283 285 282 280 282 279 277 275 276 276 277 266 262 265 258 250 258 248 242 242 240 234 236 240 235 238 244 248 245
28 29 26 1 3 349 337 334 357 10 2 18 357 338 331 329 325 323 320 316 316 316 312 311 310 313 315 311 311 308 304 305 301 292 283 280 282 278 280 280 281 279 280 282 275 266 264 265 261 254 255 249 244 243 241 239 242 240 235 240 246 244
24 32 24 16 5 349 350 5 11 9 12 5 348 340 339 340 339 333 328 324 322 322 323 322 319 314 309 306 308 307 301 303 299 293 285 282 279 282 283 283 279 278 279 281 284 277 262 258 253 255 251 251 246 243 246 246 245 244 239 238 246 245
358 2 11 14 12 11 13 14 17 6 7 351 348 347 345 340 337 337 333 331 328 326 322 318 315 311 307 306 308 310 308 303 304 301 294 274 277 272 276 280 280 275 278 281 279 283 279 257 251 255 253 251 255 252 250 251 251 249 246 244 247 242
330 354 12 18 25 16 17 17 20 16 351 340 344 346 345 342 339 336 332 326 324 322 321 317 314 309 302 300 294 282 282 289 298 297 296 292 272 269 266 276 281 277 276 277 280 283 284 279 259 255 253 254 256 259 258 255 252 251 249 248 246 237
11 13 7 4 8 16 13 22 20 12 349 346 351 351 346 340 336 327 325 322 318 316 315 313 311 315 314 311 308 297 285 280 282 282 283 277 275 273 267 265 267 271 274 276 281 282 282 279 270 255 244 239 248 253 258 259 260 258 257 254 248 235
20 8 6 3 357 4 7 16 14 3 1 8 8 352 342 335 331 324 317 314 311 310 313 310 309 309 307 307 309 305 306 290 263 271 272 271 268 271 274 268 264 263 262 273 276 281 283 280 274 256 246 251 246 253 254 254 257 254 248 246 238 221
12 8 3 355 353 354 4 7 5 360 24 18 1 349 338 330 325 319 312 308 309 309 311 307 306 306 305 305 304 290 266 277 290 274 267 258 232 240 261 269 271 266 264 267 271 278 285 282 277 267 235 242 247 249 253 250 250 248 249 242 233 204
16 8 3 352 355 2 2 359 351 5 25 9 358 348 340 332 324 317 316 313 310 308 311 312 309 309 306 303 303 307 304 274 244 247 269 281 261 239 241 247 257 265 275 274 268 260 263 277 281 293 284 271 261 256 246 248 249 249 244 244 227 187
16 14 5 0 8 9 352 343 336 13 11 4 352 347 339 331 326 321 319 324 321 317 315 310 308 304 300 296 299 301 300 308 308 278 251 256 271 264 258 254 256 263 264 259 275 273 262 265 277 283 283 280 273 255 244 245 246 244 243 227 195 188
16 11 2 3 5 351 332 345 348 22 2 356 347 345 338 335 329 322 320 317 310 312 314 311 307 307 308 308 304 299 301 305 306 306 300 273 256 275 269 257 260 261 262 261 259 268 281 271 267 274 280 278 273 253 243 245 246 245 240 222 191 189
1 350 358 12 345 341 344 356 351 6 357 351 345 340 337 330 322 309 309 306 309 311 313 313 315 315 316 315 316 314 311 305 301 304 308 311 301 270 270 277 269 267 271 268 266 262 263 273 279 277 278 276 265 252 253 253 251 248 240 216 203 197
339 352 3 347 341 356 353 351 349 3 351 342 336 337 333 324 316 309 305 314 316 317 316 319 316 314 311 309 305 303 303 301 298 295 296 300 306 312 292 258 257 266 273 270 267 266 268 269 272 275 274 271 266 258 254 250 249 243 236 217 208 207
328 12 353 355 2 357 342 341 346 357 339 331 328 329 328 325 324 321 316 318 320 315 316 314 311 307 304 304 302 301 300 299 298 295 293 289 294 294 294 303 297 281 273 279 281 275 270 269 270 273 274 272 267 259 250 248 244 232 229 220 213 211
10 357 348 4 358 346 336 331 335 341 330 328 329 333 333 333 331 327 323 322 324 323 319 315 313 309 304 298 295 296 293 293 293 294 291 289 284 281 287 291 287 288 291 284 280 278 277 273 269 268 269 269 263 253 240 236 235 233 226 220 216 214